Regional Weather Roundup
Issued by NWS

Home | Current Version | Previous Version | Graphics & Text | Print | Product List | Glossary On
Versions: 1 2 3 4 5 6 7 8 9 10 11 12 13 14 15 16 17 18 19 20 21 22 23 24 25 26 27 28 29 30 31 32 33 34 35 36 37 38 39 40 41 42 43 44 45 46 47 48 49 50
000
ASUS43 KDTX 142001
RWRMI
MICHIGAN HOURLY REGIONAL WEATHER ROUNDUP
NATIONAL WEATHER SERVICE DETROIT/PONTIAC MI
300 PM EST SUN FEB 14 2016

NOTE: "FAIR" INDICATES FEW OR NO CLOUDS BELOW 12,000 FEET WITH NO
SIGNIFICANT WEATHER AND/OR OBSTRUCTION TO VISIBILITY.

MIZ047>049-052>055-059>063-066>070-074>076-081>083-142100-
SOUTHEAST LOWER MICHIGAN

CITY           SKY/WX    TMP DP  RH WIND       PRES   REMARKS
ADRIAN         CLOUDY    18   4  54 S14       30.30F WCI   4
ALMA           SUNNY     19   2  47 E8        30.29F WCI   9
ANN ARBOR      CLOUDY    16   5  62 SE10      30.31F WCI   4
BAD AXE        SUNNY     15   1  54 S12       30.35F WCI   1
DETROIT CITY   CLOUDY    16   1  51 SE13      30.35F WCI   2
DETROIT        CLOUDY    17   3  54 SE10G18   30.35F WCI   5
FLINT          CLOUDY    18   2  49 S10       30.31F WCI   6
GROSSE ILE     CLOUDY    18   3  53 SE8       30.34F WCI   7
HILLSDALE      CLOUDY    16   4  58 SE14      30.24S WCI   2
HOWELL         CLOUDY    17   5  59 SE10      30.28F WCI   4

CITY           SKY/WX    TMP DP  RH WIND       PRES   REMARKS
JACKSON        CLOUDY    16   3  56 SE15      30.27F WCI   1
LAMBERTVILLE   CLOUDY    18   4  54 SE8G16    30.33F WCI   8
LANSING        CLOUDY    17   3  54 SE12      30.28F WCI   4
LAPEER         FAIR      17   2  51 S8        30.32F WCI   7
MASON          CLOUDY    18   6  59 SE9       30.27F WCI   6
MONROE         CLOUDY    18   4  55 E12       30.33F WCI   5
MT. CLEMENS    PTSUNNY   16   4  58 SE9       30.35F WCI   5
PONTIAC        CLOUDY    15   4  61 SE14      30.30F WCI   0
PORT HOPE        N/A     15   2  56 S7        30.34F WCI   5
PORT HURON     CLOUDY    16   3  57 S14       30.37F WCI   1
TRI CITIES     SUNNY     17   1  49 S9        30.33F WCI   6
MIDLAND        FAIR      17  -1  46 SE8       30.32F WCI   6
TROY           CLOUDY    18   4  54 SE9       30.35F WCI   7
SAGINAW HB     SUNNY     19   3  49 SE7       30.33F WCI  10
$$
MIZ043>046-050>051-056>058-064>065-071>073-077>080-142100-
SOUTHWEST LOWER MICHIGAN

CITY           SKY/WX    TMP DP  RH WIND       PRES   REMARKS
BATTLE CREEK   CLOUDY    17   4  56 S9        30.25F WCI   6
BENTON HARBOR  CLOUDY    18   4  54 SE13      30.24F WCI   5
BIG RAPIDS     CLOUDY    17  -1  45 SE12      30.23F WCI   4
COLDWATER      CLOUDY    17   4  57 SE8       30.25S WCI   7
FREMONT        FAIR      18  -1  44 SE5       30.23F WCI  11
HOLLAND        CLOUDY    17   3  54 E12       30.25F WCI   4
GRAND RAPIDS   CLOUDY    20   4  50 SE13      30.26F WCI   7
IONIA          FAIR      18   3  51 SE10G16   30.26F WCI   6
KALAMAZOO      CLOUDY    17   3  54 SE10      30.25F WCI   5
LUDINGTON      SUNNY     19   1  46 SE12G20   30.22F WCI   6
MARSHALL       CLOUDY    19   4  54 SE9G17    30.25S WCI   7
MOUNT PLEASANT SUNNY     20   2  45 SE10      30.28F WCI   9
MUSKEGON       CLOUDY    17   2  51 SE18      30.26F WCI   1
SOUTH HAVEN    CLOUDY    17   5  60 SE8       30.24F WCI   6
$$
MIZ016>042-142100-
NORTHERN LOWER MICHIGAN

CITY           SKY/WX    TMP DP  RH WIND       PRES   REMARKS
ALPENA         SUNNY     18  -1  43 S10       30.30F WCI   6
BEAVER ISLAND  CLOUDY    19   9  65 SE8       30.25F WCI   9
BELLAIRE       SUNNY     19   3  49 S9        30.28S WCI   8
CADILLAC       SUNNY     16   1  53 SE8       30.20F WCI   5
CHARLEVOIX     SUNNY     20   4  48 S9        30.29S WCI  10
FRANKFORT      SUNNY     22   2  42 SE12      30.23F WCI  10
GAYLORD        SUNNY     17   0  47 SE9       30.21F WCI   6
GRAYLING       SUNNY     16   1  52 S7        30.26R WCI   6
HARBOR SPRINGS SUNNY     19   2  46 SE5       30.25F WCI  13
HOUGHTON LAKE  SUNNY     15   0  51 S9        30.25F WCI   3
MANISTEE       SUNNY     21   0  39 SE12G17   30.24F WCI   9
OSCODA         SUNNY     17   1  49 S13       30.32F WCI   4
PELLSTON       SUNNY     18   3  52 SE9       30.26F WCI   7
ROGERS CITY    SUNNY     16   1  50 SE8       30.30F WCI   6
TRAVERSE CITY  MOSUNNY   20   1  43 VRB6      30.26F WCI  12
$$
MIZ007>008-015-142100-
EASTERN UPPER MICHIGAN

CITY           SKY/WX    TMP DP  RH WIND       PRES   REMARKS
KINROSS        CLOUDY    16   9  73 E12       30.26F WCI   3
MACKINAC ISLAN CLOUDY    20   5  52 SE10G16   30.25F WCI   8
NEWBERRY       LGT SNOW  17  12  82 SE10G18   30.21F WCI   4
S. S. MARIE    MOSUNNY   14   2  58 E12       30.27F WCI   0
$$
MIZ004>006-011>014-085-142100-
CENTRAL UPPER MICHIGAN

CITY           SKY/WX    TMP DP  RH WIND       PRES   REMARKS
MANISTIQUE     LGT SNOW  19  14  81 S7        30.21F WCI  10
ESCANABA       CLOUDY    18  12  79 S8        30.19F WCI   7
MENOMINEE      CLOUDY    16  10  79 E5        30.18F WCI   9
SAWYER-GWINN   MOSUNNY   18   9  68 S16G26    30.10F WCI   3
$$
MIZ001>003-009>011-084-142100-
WESTERN UPPER MICHIGAN

CITY           SKY/WX    TMP DP  RH WIND       PRES   REMARKS
IRON MOUNTAIN  PTSUNNY   20   7  57 SE14G21   30.08F WCI   7
HOUGHTON       CLOUDY    18  -1  43 S13       30.04F WCI   5
COPPER HARBOR    N/A     20   4  50 SW8       30.09F WCI  10
IRONWOOD       CLOUDY    19  -8  30 S10G17    29.96F WCI   8
$$

ABBREVIATIONS USED IN REMARKS
   TC - TEMPERATURE IN CELSIUS
  WCI - WIND CHILL INDEX
   HX - HEAT INDEX
  VSB - VISIBILITY




USA.gov is the U.S. government's official web portal to all federal, state and local government web resources and services.